TIANWANG 1C (TW-1C)
1 40926U 15051B   19256.76889932  .00010823  00000-0  14985-3 0  9992
2 40926  97.1274 302.8741 0009143  55.0723  38.1573 15.57224237223706
TIANWANG 1B (TW-1B)
1 40927U 15051C   19256.81727168  .00009694  00000-0  14292-3 0  9996
2 40927  97.1312 302.1168 0009713  63.7902  25.2739 15.55543392223552
TIANWANG 1A (TW-1A)
1 40928U 15051D   19256.76913475  .00002717  00000-0  67358-4 0  9990
2 40928  97.1404 286.1377 0012332 112.3322 337.0666 15.41167358222580
LAPAN A2
1 40931U 15052B   19256.14189211  .00000589  00000-0 -72077-5 0  9991
2 40931   5.9991 160.1349 0013801 299.6541  60.2508 14.76612877214068
LQSAT
1 40958U 15057A   19256.78062713 +.00000006 +00000-0 +86399-5 0  9997
2 40958 097.8919 323.5932 0017276 325.5415 034.4672 14.73088353211637
CHUBUSAT 2
1 41338U 16012B   19256.58944940 +.00000291 +00000-0 +15832-4 0  9990
2 41338 031.0036 312.5167 0013811 244.2792 115.6417 15.00177357195975
CHUBUSAT 3
1 41339U 16012C   19256.81493421  .00000261  00000-0  13499-4 0  9994
2 41339  31.0119 309.0645 0013659 254.3320 105.5798 15.00350898196007
OUFTI-1
1 41458U 16025C   19256.83433688 +.00000693 +00000-0 +39015-4 0  9992
2 41458 098.1011 348.1097 0167281 064.3303 297.5093 15.06008887185686
E-STAR-2
1 41459U 16025D   19256.80534770  .00001497  00000-0  79708-4 0  9990
2 41459  98.1002 347.6900 0168095  65.8468 296.0227 15.05635705185650
AAUSAT 4
1 41460U 16025E   19256.80357210 +.00001987 +00000-0 +10218-3 0  9998
2 41460 098.0965 349.1525 0157882 057.7966 303.8455 15.07594068185797
NUSAT 1
1 41557U 16033B   19256.92110610 +.00000831 +00000-0 +33723-4 0  9992
2 41557 097.4163 343.9136 0013521 356.8966 003.2187 15.27363424183402
BEESAT 4
1 41619U 16040W   19256.23055619  .00001011  00000-0  45508-4 0  9995
2 41619  97.3599 316.8129 0013019  81.3398 278.9313 15.23286150167034
PRATHAM
1 41783U 16059A   19256.73273404 +.00000040 +00000-0 +16956-4 0  9992
2 41783 098.0596 314.3561 0034884 109.7423 250.7547 14.63008346158276
ALSAT 1N
1 41789U 16059G   19256.85210349  .00000043  00000-0  17054-4 0  9993
2 41789  98.0632 316.6591 0029616  98.7365 261.7192 14.64260510158407
NAYIF 1
1 42017U 17008BX  19256.73528564  .00001081  00000-0  45246-4 0  9998
2 42017  97.3964 322.9078 0005309 208.6340 151.4607 15.25701297143196
MAX VALIER SAT
1 42778U 17036P   19256.70301283 +.00000636 +00000-0 +30715-4 0  9997
2 42778 097.3466 312.4192 0010621 280.0391 079.9647 15.22126312123474
